Theta_e
307 307 307 308 308 308 309 309 309 313 313 314 314 313 313 312 311 310 315 322 315 314 315 317 317 314 316 317 311 317 311 313 309 306 305 306 304 307 305 305 304 303 302 301 303 300 297 312 310 303 308 310 307 307
307 307 307 307 308 308 308 308 309 311 312 313 314 313 313 312 311 310 311 319 319 315 314 318 317 318 318 319 318 321 317 317 315 309 310 309 306 307 306 301 311 304 308 306 304 303 314 313 312 312 310 307 307 308
307 307 306 307 307 308 308 308 308 310 312 313 313 313 313 312 311 310 314 317 316 314 313 313 312 317 321 321 326 317 318 321 320 322 313 310 305 309 303 306 308 311 313 307 307 310 310 311 310 309 309 308 309 310
307 307 307 307 307 307 308 308 309 310 312 312 313 313 312 311 311 310 312 317 316 314 307 310 317 313 319 322 322 325 323 325 323 315 312 310 307 314 308 309 308 310 310 307 307 308 308 309 309 309 309 310 310 310
306 307 307 307 307 307 308 308 309 310 312 313 313 313 312 311 310 312 314 318 319 313 307 308 314 316 318 320 319 321 322 321 314 312 310 308 313 312 312 310 307 311 308 305 303 307 306 307 309 310 309 308 309 309
306 306 307 307 307 307 307 307 308 308 312 313 314 313 311 310 308 311 309 317 319 318 311 304 313 312 315 316 316 316 317 317 315 313 312 313 315 311 305 304 311 311 311 311 307 311 310 310 311 311 309 309 309 310
306 306 306 307 307 307 307 307 307 307 312 313 312 311 311 309 310 309 307 310 309 319 311 305 305 311 314 314 313 313 315 314 313 312 309 310 309 307 305 302 310 310 310 310 311 311 308 309 306 310 310 310 311 311
306 306 306 306 307 307 308 307 307 309 312 312 311 310 309 307 308 309 314 308 312 313 312 304 304 306 313 308 308 314 310 311 310 310 310 307 309 307 301 307 309 308 309 309 310 311 310 310 310 310 310 311 309 309
305 306 306 306 307 307 307 308 308 310 311 310 309 309 308 308 306 311 310 310 318 313 306 306 303 301 311 310 311 309 312 306 311 306 307 308 305 301 306 306 307 307 308 308 310 309 309 308 308 308 310 309 308 307
305 306 306 306 306 307 307 307 307 310 309 308 307 304 299 306 310 311 310 307 309 311 312 306 311 304 308 309 307 307 308 306 302 305 309 304 303 310 310 309 311 310 310 310 306 305 306 306 306 309 309 310 309 308
305 306 306 306 307 306 307 307 309 309 308 304 301 302 309 310 308 308 303 301 303 301 307 308 310 305 312 305 305 310 305 306 299 303 302 302 302 307 310 309 311 311 310 310 309 309 309 309 309 309 308 308 307 306
305 306 306 306 306 306 306 306 308 307 305 307 308 310 308 306 304 300 299 300 300 298 305 304 308 310 310 314 307 307 304 304 297 306 301 298 304 309 308 309 309 309 309 308 309 308 310 311 311 309 308 306 305 304
305 305 305 306 306 306 304 308 308 307 307 308 304 300 300 300 294 295 292 295 298 303 306 308 305 308 309 310 307 305 301 300 306 299 298 304 310 309 309 308 307 308 309 309 309 312 312 310 309 308 306 306 304 303
305 305 306 306 306 306 308 307 308 308 309 300 295 290 294 293 297 298 299 301 306 308 307 310 306 305 309 305 305 300 304 303 296 295 298 306 310 308 308 307 307 307 308 308 310 311 309 309 308 307 305 303 303 300
304 305 305 306 307 308 307 308 309 309 305 298 298 292 296 302 303 305 306 307 309 309 310 307 306 308 305 303 304 303 298 295 297 298 305 309 313 309 307 307 307 308 309 310 309 308 308 305 305 303 303 304 302 301
305 305 304 306 307 307 307 306 305 305 300 300 301 299 303 302 302 305 306 307 310 310 311 309 305 303 301 302 299 298 296 295 300 306 309 311 310 308 308 308 309 309 312 310 310 307 305 304 303 302 303 302 301 302
304 301 304 305 307 306 306 301 301 297 296 297 299 306 306 305 305 307 310 307 312 309 305 306 299 298 304 299 298 302 300 304 308 308 309 312 309 309 309 309 310 311 310 309 308 306 305 304 303 300 300 300 302 302
301 304 306 306 305 304 302 303 297 295 293 297 299 303 307 308 306 306 307 309 309 307 306 303 305 299 298 297 299 304 306 308 309 309 308 310 311 310 309 310 312 312 310 308 307 305 304 302 300 299 301 301 302 302
306 306 305 305 305 301 296 297 300 292 295 300 302 304 305 305 307 308 309 311 312 310 306 304 301 300 301 305 305 307 306 307 305 306 308 311 311 310 310 313 313 310 309 308 306 304 303 302 301 301 301 301 300 302
305 304 305 306 307 300 295 296 304 296 292 295 302 300 301 301 303 306 308 308 307 306 301 300 301 304 305 307 310 310 309 310 307 304 304 307 310 311 311 311 311 311 308 307 305 301 302 301 302 302 302 301 300 300
304 304 306 306 303 301 298 297 296 296 295 295 299 299 299 303 303 303 303 306 302 301 300 304 305 307 312 312 311 312 310 309 307 306 305 304 307 310 310 312 313 311 308 307 305 301 301 300 302 304 303 303 303 303
303 305 304 305 300 299 296 299 298 299 296 295 296 297 294 294 296 299 303 300 300 303 305 305 306 308 308 308 308 311 310 310 311 303 299 299 306 308 308 309 310 310 310 308 307 305 305 304 302 303 302 302 302 304
304 304 302 300 293 292 291 300 295 297 291 292 295 292 292 293 297 302 296 300 301 306 307 307 308 312 309 309 310 309 309 308 306 306 305 308 309 310 310 311 312 311 310 309 310 308 306 299 300 303 304 304 304 305
303 298 294 293 293 289 295 294 298 296 294 293 293 291 293 294 298 296 294 298 302 305 306 307 307 306 306 308 305 306 307 309 308 308 309 308 307 308 313 310 309 311 312 314 310 309 307 306 302 305 305 304 304 305
291 291 294 289 297 293 292 292 293 293 291 293 292 292 293 297 293 293 294 298 301 302 304 305 306 306 304 304 306 307 309 308 306 306 308 309 307 308 309 309 310 310 311 312 309 308 309 308 306 305 304 304 303 303
289 295 292 294 294 294 293 291 292 292 293 292 292 295 296 293 291 291 297 301 303 305 306 308 306 304 304 305 304 305 306 309 308 306 307 308 307 306 307 306 306 309 312 311 306 306 308 309 308 306 305 302 294 302
289 292 298 303 300 299 296 298 297 295 292 291 294 293 293 289 290 294 301 303 304 306 307 307 306 304 304 304 306 307 308 309 308 307 308 309 308 311 309 307 306 310 312 311 309 306 308 310 307 307 305 305 305 304
296 297 294 297 298 299 295 295 294 292 294 297 296 292 291 291 288 296 300 304 306 306 305 305 306 306 305 305 305 306 307 309 309 309 308 308 310 312 314 313 311 289 310 311 308 306 309 309 308 308 305 303 304 305
296 299 299 294 295 295 294 294 294 298 301 298 295 291 289 293 296 297 302 304 304 304 302 302 303 306 305 306 307 307 307 306 304 301 300 301 306 311 313 313 312 313 313 311 291 295 302 302 302 308 305 305 306 306
295 300 295 294 293 290 294 298 297 300 300 299 297 294 293 295 298 301 301 301 300 301 301 302 302 303 303 302 302 304 307 308 306 305 301 302 306 312 312 312 312 312 312 311 306 303 292 303 302 306 304 305 304 304
298 297 294 293 291 295 297 300 301 301 300 298 299 295 293 294 297 300 300 300 300 300 299 299 300 302 302 302 301 300 301 305 307 308 306 307 308 309 311 310 311 312 310 309 305 302 303 304 304 303 303 303 303 301
297 295 293 291 292 297 299 296 295 295 295 295 295 297 296 295 293 297 301 300 298 298 294 298 300 300 302 303 303 304 293 305 306 306 306 307 308 309 309 311 309 310 309 305 302 302 303 303 302 302 302 303 302 303
295 296 295 294 293 293 296 296 294 293 294 292 293 294 295 295 292 299 304 304 302 301 301 301 302 304 302 302 302 303 297 305 302 291 289 286 286 293 303 309 310 308 304 302 301 302 301 301 301 301 302 302 302 301
Wind_Speed
25 25 23 23 22 20 17 16 15 19 23 23 22 20 18 16 12 9 4 3 5 6 8 11 11 12 10 6 5 12 6 4 5 5 4 1 2 4 2 3 3 4 6 8 6 8 1 13 6 7 6 11 12 13
26 25 24 23 22 22 20 17 17 14 23 23 22 21 19 17 14 11 6 5 4 6 5 4 8 10 9 10 6 5 3 6 6 4 3 4 2 4 2 3 6 1 3 5 5 7 7 6 7 8 8 10 12 15
27 26 24 23 22 21 20 19 18 13 24 23 22 21 20 18 16 15 6 2 5 5 4 6 5 8 9 9 7 4 4 4 4 4 5 4 3 4 5 4 6 3 7 2 6 5 12 10 9 8 10 12 13 13
27 26 25 24 23 22 21 19 20 15 24 23 22 22 21 18 14 13 6 3 5 5 6 6 4 4 5 5 8 8 6 5 3 3 3 3 3 2 3 4 5 8 1 4 9 8 8 7 13 12 12 12 15 17
27 26 25 24 23 22 21 20 19 12 25 24 23 22 21 17 12 7 8 9 7 5 6 7 7 5 5 5 7 7 5 3 3 3 3 4 3 4 4 2 6 6 6 4 5 7 6 10 12 13 14 15 16 17
28 27 26 25 24 22 20 18 16 8 25 25 24 23 20 16 13 8 5 7 6 5 5 6 5 5 5 4 5 5 3 2 3 3 2 4 4 3 4 3 6 6 7 7 5 7 7 9 11 14 15 16 18 18
28 27 26 25 23 22 21 21 19 11 25 26 24 22 19 16 11 6 3 6 11 5 5 5 6 6 6 6 4 3 1 1 4 1 2 3 5 3 4 7 10 6 4 3 4 3 7 11 12 14 16 18 18 19
28 27 26 24 23 23 23 22 22 12 27 27 24 20 15 9 8 7 3 6 6 5 5 4 6 6 7 5 4 1 3 3 3 2 1 4 6 3 4 2 6 4 4 3 4 7 9 11 13 15 16 16 20 19
28 27 26 24 24 24 24 21 24 16 30 29 25 21 8 6 5 4 4 0 3 5 3 4 8 5 9 6 4 4 3 4 3 4 3 1 4 5 1 2 4 1 3 6 7 9 11 13 15 16 17 19 17 17
28 27 25 24 23 24 21 23 21 27 35 33 14 2 5 7 16 12 3 5 5 5 5 7 4 6 10 7 5 6 4 5 5 5 5 4 6 3 9 4 5 4 3 6 8 10 12 14 15 16 17 16 16 15
28 27 27 26 25 21 21 23 21 39 31 6 4 5 8 14 5 4 6 7 7 7 6 7 6 10 8 8 7 3 3 4 3 5 3 4 4 9 9 8 5 4 3 5 8 10 12 13 15 15 16 15 14 17
28 27 27 26 24 23 22 12 40 13 7 9 7 9 4 4 3 5 7 4 7 11 10 14 10 10 7 3 3 3 3 0 1 4 3 4 7 10 9 8 5 3 3 7 10 12 12 15 14 15 12 12 13 14
27 26 26 25 25 23 16 32 27 20 11 8 7 4 3 2 6 11 14 8 7 10 10 13 10 8 4 5 4 4 5 4 3 4 4 3 9 8 8 5 3 1 6 9 10 14 15 13 12 11 11 12 14 12
26 25 25 25 25 21 27 34 29 13 3 5 5 9 6 8 8 6 12 11 8 9 13 11 8 5 6 7 4 5 4 4 4 5 5 10 10 10 7 4 4 6 7 9 13 13 12 11 11 11 11 11 10 10
24 25 23 22 23 22 35 30 13 3 2 5 5 5 9 8 10 9 13 11 9 9 8 10 5 4 7 4 4 4 6 5 6 3 10 10 10 9 7 5 5 5 8 10 9 10 10 10 12 10 9 9 8 9
23 21 12 18 18 30 30 17 5 3 3 1 4 7 8 10 12 9 12 12 9 10 10 9 3 3 3 4 5 7 6 6 6 8 10 10 9 8 7 4 3 6 9 7 7 8 8 10 9 9 9 7 7 7
11 3 21 15 28 29 25 6 2 5 2 2 4 6 9 10 9 8 11 10 7 12 11 4 6 7 4 5 7 7 4 8 11 10 9 10 9 7 5 3 5 7 6 7 7 8 9 10 9 8 7 6 6 5
4 12 24 30 24 17 3 3 4 2 2 3 2 4 4 6 8 8 8 10 9 6 6 4 2 4 4 8 9 7 9 10 10 9 9 8 7 6 4 4 8 5 6 6 6 8 9 9 7 5 6 6 4 5
16 21 32 28 13 6 5 3 1 3 2 1 2 7 5 6 7 6 8 9 2 4 4 4 3 5 3 1 10 10 9 8 9 9 8 7 6 5 3 9 6 6 5 6 7 6 6 7 5 4 3 3 4 4
30 30 27 14 5 4 5 2 2 5 3 3 3 7 6 5 4 5 7 7 7 4 3 2 2 4 3 7 7 8 9 8 8 8 8 7 7 7 6 5 6 6 4 6 6 6 6 5 4 4 3 3 4 3
21 10 12 5 4 6 4 2 4 3 3 3 4 5 4 5 4 4 4 6 4 3 4 3 7 7 8 8 8 8 9 6 5 5 7 8 5 6 5 5 4 3 3 5 5 6 7 3 2 2 1 1 1 1
6 8 4 4 5 5 4 5 6 5 3 4 2 2 3 3 3 4 5 3 2 5 5 8 6 7 9 10 8 9 8 7 8 5 5 3 3 6 3 1 4 0 3 1 4 6 6 7 3 1 2 3 3 3
11 7 6 4 6 5 2 4 3 4 4 4 3 3 3 2 2 2 2 2 3 4 7 9 9 8 10 10 9 7 5 2 5 5 5 1 6 4 3 5 4 2 2 3 1 2 7 7 6 5 5 5 3 2
7 4 3 3 4 4 1 1 2 5 4 3 4 5 4 4 4 2 3 4 5 6 7 9 8 7 7 8 7 6 5 1 2 4 4 2 3 4 4 3 2 5 4 5 6 4 6 9 10 9 9 5 3 3
6 3 4 2 5 5 4 4 4 4 4 4 4 5 6 5 4 3 3 6 8 8 9 8 7 7 6 7 9 7 1 3 4 5 2 2 4 4 4 4 3 3 3 3 4 4 6 7 9 8 9 8 6 6
3 4 4 3 4 5 5 6 5 9 8 4 4 6 4 3 3 5 4 5 5 6 6 6 4 3 3 4 6 5 4 1 1 2 5 2 4 3 2 3 2 3 2 2 3 4 10 8 8 10 9 9 6 5
2 3 3 4 4 8 7 11 12 6 4 3 6 6 5 5 4 3 3 6 6 5 5 4 4 3 5 5 4 3 5 3 1 3 2 3 2 3 4 1 3 1 1 1 2 5 8 10 9 7 9 8 8 6
2 2 9 8 8 11 18 9 5 3 2 5 6 4 4 4 2 2 2 3 4 4 5 5 2 3 4 4 2 0 1 0 2 4 6 7 7 3 3 2 2 2 2 1 4 5 5 6 9 11 10 9 8 7
3 5 12 15 8 5 3 3 3 2 2 6 3 4 3 2 1 1 1 3 2 2 5 5 3 2 5 5 6 5 3 3 5 5 3 3 3 2 5 5 5 2 2 2 3 2 1 1 8 8 10 9 7 9
5 5 5 9 6 5 3 4 5 5 8 7 6 5 3 2 2 1 2 2 3 1 4 4 4 3 2 2 2 1 1 1 5 7 5 1 2 3 1 0 2 2 2 1 3 2 2 3 5 5 8 8 8 7
7 10 13 8 7 8 8 9 9 9 10 10 10 9 7 4 3 2 3 2 3 4 3 3 5 4 3 4 3 3 4 3 1 5 9 4 1 4 2 2 3 1 1 3 4 4 3 3 3 2 7 9 9 8
10 13 13 16 9 8 8 6 6 7 7 7 7 8 6 4 4 5 6 5 3 3 3 3 3 2 3 3 4 5 4 6 4 4 6 6 3 5 6 4 3 1 2 2 4 4 7 10 7 5 6 7 6 3
12 12 13 11 8 6 7 5 4 5 5 4 3 2 2 3 3 3 4 5 5 5 5 4 2 2 3 4 4 5 7 6 4 3 2 1 2 4 6 6 4 3 3 3 5 4 7 12 8 10 7 6 4 8
Wind_Direction
196 192 192 193 188 186 187 187 202 191 177 175 172 173 172 175 180 210 265 155 285 311 54 26 31 27 345 346 204 130 172 210 184 264 274 133 281 66 270 298 290 331 322 298 306 310 39 12 342 24 346 345 344 348
194 192 190 189 190 188 182 185 197 202 176 174 171 171 168 172 178 194 269 179 208 269 51 30 53 33 39 25 339 155 24 115 8 249 357 5 226 187 181 265 124 253 26 353 351 339 21 37 44 26 13 347 343 333
192 190 189 187 187 185 176 184 189 210 174 172 171 168 166 171 180 196 276 193 204 262 183 194 81 37 23 20 15 320 88 8 76 338 355 14 337 325 293 8 347 193 112 246 334 115 1 10 45 24 3 341 330 326
190 189 184 183 185 186 179 182 183 210 171 170 169 167 166 172 184 200 239 217 262 304 248 123 183 43 15 18 50 50 75 56 338 315 307 305 322 45 340 345 310 337 216 311 289 36 338 58 17 356 337 329 341 334
187 185 183 181 181 181 172 179 176 197 168 167 165 164 164 167 176 212 251 269 242 301 330 112 120 87 58 41 59 57 52 348 230 201 216 249 16 358 272 307 267 4 21 340 17 19 350 342 345 333 345 336 326 329
183 180 179 178 177 176 171 176 173 192 163 162 162 160 159 162 160 203 214 228 223 246 279 173 91 143 114 95 90 76 84 253 286 295 289 83 76 313 291 292 96 96 71 42 4 360 346 317 344 340 324 330 327 319
178 175 175 176 175 177 175 172 175 199 161 156 154 154 157 159 187 218 357 354 328 265 249 132 144 157 149 167 161 134 232 168 292 152 258 292 122 224 268 275 117 114 48 31 343 341 313 345 325 328 335 327 330 337
172 170 171 173 174 175 172 168 169 196 152 144 143 143 142 140 288 276 207 225 307 238 261 199 94 159 189 186 155 174 164 188 185 310 105 249 138 207 262 57 77 36 10 324 354 356 329 326 335 334 332 340 344 343
168 167 167 168 167 167 164 161 170 178 140 130 124 118 112 188 212 192 118 276 295 294 252 256 152 156 163 214 100 190 223 199 100 239 207 187 224 218 215 187 112 209 33 335 328 327 339 338 332 330 347 347 339 334
163 163 164 163 162 158 152 162 171 150 126 121 114 129 165 193 117 140 118 174 203 211 232 254 147 133 190 162 175 156 206 229 195 190 89 227 251 333 118 117 85 55 353 346 332 335 338 331 328 354 345 344 343 344
158 158 159 154 152 145 147 153 167 127 125 107 144 172 120 147 188 212 161 176 195 206 206 228 215 138 191 185 165 170 200 148 241 117 241 220 229 139 129 126 126 77 349 326 324 335 335 339 11 356 346 345 345 345
155 155 154 153 152 149 154 170 136 124 127 170 130 107 119 170 208 179 175 185 201 207 179 204 150 140 132 114 147 188 183 155 256 146 227 244 104 123 138 127 127 95 332 326 346 339 347 14 4 350 355 350 345 347
151 153 150 152 154 151 172 163 122 150 155 132 64 82 128 237 204 188 181 169 193 184 156 185 145 120 103 240 122 195 180 193 104 198 227 86 137 128 115 115 117 24 0 352 345 21 16 3 360 357 353 7 346 347
146 146 151 154 150 166 169 137 152 156 118 105 124 142 183 187 208 202 169 168 182 172 160 149 128 148 183 176 162 174 155 139 211 227 221 132 142 129 121 104 48 20 0 348 10 11 357 351 355 3 15 356 349 339
138 142 139 151 160 161 145 132 114 37 75 113 163 187 198 180 177 183 169 157 134 139 140 128 155 186 169 168 210 124 164 222 212 230 104 118 120 121 111 76 41 10 12 25 16 2 355 15 360 4 5 353 357 330
128 122 147 138 152 145 124 97 51 23 46 118 217 206 186 159 172 159 170 143 157 157 145 162 147 170 167 197 183 181 192 208 181 99 110 113 119 111 100 77 43 29 41 26 9 17 3 10 7 8 357 8 343 349
133 79 152 149 135 127 110 88 117 63 68 274 223 244 155 159 143 129 132 140 170 165 159 124 170 173 180 198 193 189 214 97 103 112 119 112 119 119 110 93 62 57 20 13 21 10 18 15 24 8 358 1 356 18
98 142 149 136 120 110 78 46 80 86 84 309 114 133 135 121 132 136 149 152 163 178 127 152 104 188 201 190 194 108 98 95 101 108 118 123 132 129 127 64 76 62 43 38 18 44 39 26 21 357 5 3 32 27
141 143 137 132 122 98 83 52 325 90 50 80 87 94 98 94 94 136 138 145 194 98 83 171 176 201 183 191 110 117 120 115 120 119 123 125 133 136 128 104 84 75 72 53 49 50 57 50 26 23 4 14 50 45
125 130 117 85 65 75 87 108 232 78 54 349 352 90 78 74 103 162 109 123 112 133 146 199 169 100 137 97 114 119 121 130 138 141 152 158 158 193 117 67 85 108 135 114 98 72 63 53 29 41 20 39 68 45
109 94 71 74 62 65 70 84 81 79 82 57 20 36 40 40 28 40 109 136 140 94 166 147 104 81 92 95 99 100 112 158 152 154 138 138 128 119 106 81 128 119 187 178 115 119 113 88 346 348 339 2 8 300
104 109 97 47 77 72 70 352 108 117 89 115 98 52 60 55 39 23 321 114 159 158 125 114 103 116 104 105 106 91 88 77 72 87 71 129 194 115 123 82 78 195 207 283 132 144 137 151 178 252 298 312 306 245
84 35 52 45 65 56 34 278 93 106 113 141 112 89 90 102 108 238 80 231 89 127 121 125 130 111 105 102 107 107 114 140 166 162 157 165 76 83 90 71 64 30 266 228 245 206 135 149 173 198 196 219 225 258
67 69 85 82 86 109 199 103 103 87 98 153 135 111 113 122 176 203 145 155 162 131 111 119 125 130 141 153 161 139 141 206 134 99 90 192 101 86 89 90 12 42 341 283 244 222 164 183 167 197 200 208 179 201
72 55 97 64 130 139 123 126 130 107 130 138 119 122 124 166 156 156 144 149 169 150 145 167 149 158 177 191 122 106 266 267 179 136 171 233 163 195 133 155 111 81 356 316 280 279 257 207 195 177 219 168 184 166
82 136 179 133 156 147 140 127 136 137 137 116 123 125 163 166 135 126 139 161 155 119 92 86 108 148 182 53 103 124 130 203 108 212 121 262 310 320 242 300 293 123 110 347 323 284 284 275 270 185 144 123 115 152
95 141 173 201 155 146 127 115 131 140 124 110 136 147 158 164 133 114 82 75 91 114 133 128 113 178 120 119 106 135 205 159 279 72 12 298 17 337 311 315 318 75 57 284 307 270 265 282 308 237 154 160 172 189
87 219 153 150 145 129 125 124 122 121 98 142 150 163 139 42 110 75 76 136 115 78 89 91 77 101 96 87 51 83 291 219 151 216 230 239 210 159 218 168 304 157 302 1 321 293 255 269 290 285 162 173 170 147
109 115 113 113 106 103 65 67 76 65 345 178 129 86 89 64 37 114 152 163 146 145 146 166 185 178 169 181 200 222 212 254 283 282 259 289 338 242 204 214 237 202 213 219 202 227 246 10 293 252 158 139 133 127
134 162 135 105 85 63 54 98 112 82 63 80 105 106 101 87 57 183 166 153 183 129 78 70 96 249 264 275 298 13 22 319 270 285 305 286 334 335 259 161 343 231 213 331 289 225 26 312 302 73 123 131 142 155
109 98 104 95 87 93 88 81 64 65 84 92 109 116 117 128 132 122 139 132 138 143 150 170 196 220 241 258 257 273 275 250 239 356 352 317 39 27 18 356 327 284 260 251 245 224 165 125 123 69 152 163 162 162
100 110 116 117 115 140 116 88 76 84 82 86 98 106 118 125 117 143 175 159 154 173 173 219 195 177 199 272 295 293 272 295 308 5 3 342 350 359 345 340 228 191 318 229 203 213 173 142 131 151 220 142 150 178
104 103 108 117 129 126 138 120 98 122 114 105 95 95 133 122 135 124 148 169 172 181 173 180 231 266 269 261 253 274 273 270 252 168 148 70 23 337 303 287 75 101 164 182 177 184 166 119 137 146 129 143 179 127